#timestamp,LO_Frequency,Hit,StdDev 
1627178415.5,286047000.3,N
1627178435.3,286047000.5,N
1627178455.1,286047000.8,N
1627178475.9,286046999.0,N
1627178495.7,286046998.3,N
1627178515.5,286046998.8,N
1627178535.4,286046998.6,N
1627178555.2,286046998.9,N
1627178575.1,286046998.9,N
1627178576.0,286046998.9,N
1627178595.8,286046999.0,N
1627178615.6,286046999.4,N
1627178635.5,286046998.4,N
1627178655.3,286046999.0,N
1627178675.1,286046998.6,N
1627178695.9,286046998.5,N
1627178715.7,286046999.6,N
1627178735.6,286046999.1,N
1627178755.4,286046998.4,N
1627178775.2,286047000.5,N
1627178795.1,286047000.2,N
1627178796.0,286047000.2,N
1627178815.8,286047000.4,N
1627178835.7,286047000.6,N
1627178855.5,286046998.1,N
1627178875.3,286047001.2,N
1627178895.2,286047000.6,N
1627178915.0,286047000.7,N
1627178915.9,286047000.7,N
1627178935.7,286046999.0,N
1627178955.6,286046998.1,N
1627178975.4,286046999.0,N
1627178995.3,286046997.1,Y
1627179015.1,286046998.4,P
1627179035.9,286047001.1,N
1627179055.7,286046999.1,N
1627179075.5,286047000.9,N
1627179095.4,286046999.7,N
1627179115.2,286047000.3,N
1627179135.1,286046999.8,N
1627179136.0,286046999.8,N
1627179155.8,286047000.1,N
1627179175.6,286047002.1,N
1627179195.5,286047002.2,N
1627179215.3,286047002.5,N
1627179235.1,286047002.4,N
1627179255.9,286047002.5,N
1627179275.7,286047000.6,N
1627179295.6,286047002.5,N
1627179315.4,286047002.1,N
1627179335.2,286047002.0,N
1627179355.1,286047002.5,N
1627179356.0,286047002.5,N
1627179375.8,286046999.7,N
1627179395.7,286046999.7,N
1627179415.5,286047001.8,N
1627179435.3,286047002.1,N
1627179455.2,286047001.6,N
1627179475.0,286047004.2,Y
1627179475.9,286047004.2,P
1627179495.8,286047000.3,N
1627179515.6,286047000.6,N
1627179535.4,286047000.7,N
1627179555.3,286047000.0,N
1627179575.1,286047000.4,N
1627179595.8,286047000.9,N
1627179615.7,286046999.8,N
1627179635.5,286046999.9,N
1627179655.4,286047002.4,N
1627179675.2,286047002.2,N
1627179695.0,286047002.4,N
1627179695.9,286047002.4,N
1627179715.8,286047002.8,N
1627179735.6,286047000.2,N
1627179755.4,286046999.8,N
1627179775.3,286047000.2,N
1627179795.1,286047002.0,N
1627179815.9,286047001.4,N
1627179835.7,286047001.7,N
1627179855.5,286047001.4,N
1627179875.4,286047003.5,Y
1627179895.2,286047003.1,P
1627179915.0,286047003.7,P
1627179915.9,286047003.7,P
1627179935.8,286047006.0,Y
1627179955.6,286047001.7,P
1627179975.5,286047004.3,P
1627179995.3,286047004.1,P
1627180015.1,286047003.2,Y
1627180035.9,286047001.1,P
1627180055.7,286047000.8,N
1627180075.6,286047000.9,N
1627180095.4,286047000.7,N
1627180115.2,286047000.9,N
1627180135.1,286047000.7,N
1627180136.0,286047000.7,N
1627180155.8,286047000.8,N
1627180175.6,286046998.1,N
1627180195.5,286046998.6,N
1627180215.3,286046999.0,N
1627180235.2,286046999.2,N
1627180255.9,286046999.3,N
1627180275.7,286047001.2,N
1627180295.6,286046998.9,N
1627180315.4,286046999.3,N
1627180335.2,286046999.6,N
1627180355.1,286046996.7,N
1627180356.0,286046996.7,N
1627180375.8,286046995.0,Y
1627180395.7,286046998.0,P
1627180415.5,286046997.9,N
1627180435.3,286046997.4,N
1627180455.2,286046997.7,N
1627180475.0,286046995.0,Y
1627180475.9,286046995.0,P
1627180495.8,286046999.3,N
1627180515.6,286046998.9,N
1627180535.4,286046999.4,N
1627180555.3,286046997.2,N
1627180575.1,286046996.7,N
1627180595.8,286046997.4,N
1627180615.7,286046997.3,N
1627180635.5,286046997.5,N
1627180655.4,286046995.2,Y
1627180675.2,286046999.6,P
1627180695.0,286046997.1,P
1627180695.9,286046997.1,N
1627180715.8,286046997.0,N
1627180735.6,286046999.6,N
1627180755.5,286046999.4,N
1627180775.3,286046997.8,N
1627180795.1,286046996.1,Y
1627180815.9,286046995.4,P
1627180835.7,286046995.4,P
1627180855.6,286046995.3,P
1627180875.4,286046998.0,N
1627180895.2,286046995.1,Y
1627180915.1,286046998.6,P
1627180916.0,286046998.6,N
1627180935.8,286046998.5,N
1627180955.6,286046998.7,N
1627180975.5,286046999.3,N
1627180995.3,286046998.6,N
1627181015.2,286047000.7,N
1627181035.9,286047000.8,N
1627181055.7,286046998.5,N
1627181075.6,286047001.2,N
1627181095.4,286046998.2,N
1627181115.3,286047000.8,N
1627181135.1,286047001.1,N
1627181136.0,286047001.1,N
1627181155.8,286047001.2,N
1627181175.7,286046998.5,N
1627181195.5,286046998.8,N
1627181215.3,286046998.7,N
1627181235.2,286047000.5,N
1627181255.0,286047000.0,N
1627181255.9,286047000.0,N
1627181275.8,286047000.5,N
1627181295.6,286047001.0,N
1627181315.4,286047000.6,N
1627181335.3,286047000.5,N
1627181355.1,286047000.9,N
1627181375.9,286047000.1,N
1627181395.7,286046999.9,N
1627181415.5,286047000.1,N
1627181435.4,286047000.3,N
1627181455.2,286047000.0,N
1627181475.0,286047000.5,N
1627181475.9,286047000.5,N
1627181495.8,286047000.6,N
1627181515.6,286047000.2,N
1627181535.5,286047002.5,N
1627181555.3,286047000.4,N
1627181575.1,286046999.8,N
1627181625.9,286047004.2,E
1627181635.8,286047000.3,N
1627181655.7,286046997.3,P
1627181675.5,286046997.4,N
1627181695.3,286046997.2,N
1627181715.2,286046996.8,N
1627181735.0,286046997.7,N
1627181735.9,286046997.7,N
1627181755.7,286046997.5,N
1627181775.6,286046997.3,N
1627181795.4,286046996.5,Y
1627181815.3,286047000.7,P
1627181835.1,286046998.2,N
1627181855.8,286046998.8,N
1627181875.7,286046998.4,N
1627181895.5,286047000.8,N
1627181915.4,286046998.5,N
1627181935.2,286046998.6,N
1627181955.0,286046998.9,N
1627181955.9,286046998.9,N
1627181975.8,286046997.0,Y
1627181995.6,286047000.6,P
